GW3838 Weather Reports


Display with metric or nautical units.
time (UTC)temp
F
wind
direction
speed
MPH
gust
MPH
rain 1hr
in
rain 24hr
in
rain mn
in
humidity
%
barometer
mb
20260502204018 59 55 2.0 3.0 0.00 0.80 0.80 97 1017.6
20260502203515 59 55 2.0 5.0 0.07 0.80 0.80 97 1017.6
20260502203012 60 52 2.0 6.0 0.00 0.79 0.79 97 1017.3
20260502202508 60 56 3.0 5.0 0.05 0.79 0.79 97 1017.4
20260502202006 60 65 4.0 6.0 0.00 0.78 0.78 97 1017.3
20260502201502 60 0 4.0 6.0 0.07 0.78 0.78 97 1017.2
20260502200958 60 67 2.0 6.0 0.07 0.78 0.78 97 1017.5
20260502200454 60 24 3.0 3.0 0.05 0.77 0.77 97 1017.3
20260502195952 59 52 2.0 6.0 0.05 0.77 0.77 97 1017.4
20260502195450 59 23 5.0 6.0 0.00 0.76 0.76 98 1017.4
20260502194945 59 89 1.0 3.0 0.07 0.76 0.76 98 1017.5
20260502194443 59 84 1.0 3.0 0.00 0.75 0.75 98 1017.5
20260502193938 58 68 3.0 3.0 0.05 0.75 0.75 98 1017.5
20260502193436 58 80 2.0 3.0 0.05 0.75 0.75 98 1017.5
20260502192931 58 44 3.0 6.0 0.07 0.74 0.74 98 1017.6
20260502192428 57 1 4.0 6.0 0.07 0.74 0.74 98 1017.7
20260502191925 58 39 5.0 8.0 0.00 0.73 0.73 98 1017.6
20260502191423 59 21 4.0 5.0 0.05 0.73 0.73 98 1017.5
20260502190920 59 49 5.0 6.0 0.05 0.73 0.73 98 1017.4
20260502190417 59 15 3.0 3.0 0.07 0.72 0.72 98 1017.2
20260502185914 59 94 3.0 6.0 0.07 0.72 0.72 99 1017.2
20260502185409 59 25 5.0 7.0 0.05 0.71 0.71 99 1017.3
20260502184907 59 46 5.0 6.0 0.05 0.71 0.71 99 1017.4
20260502184402 59 48 3.0 5.0 0.07 0.70 0.70 99 1017.3
20260502183859 59 359 3.0 6.0 0.07 0.70 0.70 99 1017.5
20260502183354 59 29 3.0 3.0 0.00 0.69 0.69 99 1017.5
20260502182850 59 342 4.0 7.0 0.05 0.69 0.69 99 1017.7
20260502182346 59 87 2.0 5.0 0.05 0.69 0.69 99 1017.6
20260502181842 59 79 1.0 6.0 0.07 0.68 0.68 99 1017.5
20260502181341 58 60 3.0 6.0 0.07 0.68 0.68 99 1017.6
20260502180839 59 31 5.0 7.0 0.07 0.67 0.67 99 1017.6
20260502180336 59 36 4.0 6.0 0.07 0.67 0.67 99 1017.3
20260502170254 59 100 1.0 3.0 0.05 0.62 0.62 99 1016.9
20260502164242 59 61 2.0 2.0 0.05 0.60 0.60 99 1017.4
20260502163737 59 28 2.0 3.0 0.05 0.60 0.60 99 1017.1
20260502163234 59 88 2.0 3.0 0.00 0.59 0.59 99 1017.0
20260502162731 58 111 0.0 2.0 0.07 0.59 0.59 99 1017.2
20260502162228 59 84 1.0 3.0 0.07 0.59 0.59 99 1017.7
20260502161725 59 349 4.0 5.0 0.05 0.58 0.58 99 1017.5
20260502161222 59 100 1.0 5.0 0.05 0.58 0.58 99 1017.6
20260502160720 59 70 1.0 6.0 0.07 0.57 0.57 99 1017.3
20260502160219 59 76 2.0 2.0 0.07 0.57 0.57 99 1017.4
20260502152143 58 42 2.0 5.0 0.07 0.54 0.54 99 1017.1
20260502151640 57 62 2.0 2.0 0.00 0.53 0.53 99 1017.0
20260502151137 57 83 1.0 3.0 0.05 0.53 0.53 99 1017.1
20260502150635 57 68 2.0 5.0 0.05 0.53 0.53 99 1017.2
20260502150131 58 48 2.0 2.0 0.00 0.52 0.52 99 1017.7
20260502130519 56 342 4.0 5.0 0.05 0.45 0.45 99 1018.4
20260502123502 56 31 3.0 3.0 0.00 0.43 0.43 99 1017.5
20260502122959 56 48 3.0 5.0 0.05 0.43 0.43 99 1017.4
20260502122455 56 38 2.0 3.0 0.00 0.42 0.42 99 1017.3
20260502121953 57 87 1.0 3.0 0.00 0.42 0.42 99 1017.4
20260502121450 57 56 2.0 3.0 0.07 0.42 0.42 99 1017.7
20260502120948 57 94 1.0 2.0 0.07 0.42 0.42 99 1017.5
20260502120444 56 26 3.0 5.0 0.00 0.41 0.41 99 1017.5
20260502115438 56 89 3.0 3.0 0.07 0.41 0.41 99 1017.3
20260502114934 57 69 2.0 3.0 0.07 0.41 0.41 99 1017.0
20260502114431 57 81 2.0 5.0 0.00 0.40 0.40 99 1017.3
20260502113928 58 82 1.0 2.0 0.05 0.40 0.40 99 1017.2
20260502113426 58 90 1.0 2.0 0.05 0.40 0.40 99 1017.4
20260502112925 58 65 2.0 2.0 0.00 0.39 0.39 99 1017.1
20260502112422 58 64 2.0 3.0 0.00 0.39 0.39 99 1016.9
20260502111919 58 35 2.0 6.0 0.07 0.39 0.39 99 1016.7
20260502111416 58 57 1.0 5.0 0.07 0.39 0.39 99 1016.6
20260502110913 58 109 0.0 2.0 0.00 0.38 0.38 99 1016.6
20260502110411 58 94 1.0 2.0 0.00 0.38 0.38 99 1016.6
20260502105908 58 61 2.0 2.0 0.05 0.38 0.38 99 1016.6
20260502105405 58 50 3.0 5.0 0.05 0.38 0.38 99 1016.5
20260502104903 58 22 3.0 3.0 0.00 0.37 0.37 99 1016.3
20260502104400 58 351 3.0 5.0 0.00 0.37 0.37 99 1016.4
20260502103857 58 351 3.0 5.0 0.07 0.37 0.37 99 1016.4
20260502103355 58 349 3.0 5.0 0.07 0.37 0.37 99 1016.4
20260502102852 58 52 2.0 3.0 0.00 0.36 0.36 99 1015.9
20260502102348 58 21 3.0 6.0 0.00 0.36 0.36 99 1016.1
20260502101846 58 318 2.0 2.0 0.05 0.36 0.36 99 1015.9
20260502101344 58 71 2.0 3.0 0.00 0.35 0.35 99 1015.7
20260502100842 58 57 3.0 3.0 0.00 0.35 0.35 99 1015.7
20260502100341 58 89 1.0 2.0 0.07 0.35 0.35 99 1015.9
20260502091315 58 108 1.0 2.0 0.05 0.32 0.32 99 1017.0
20260502090813 58 104 1.0 1.0 0.00 0.31 0.31 99 1016.9
20260502090309 58 32 3.0 3.0 0.07 0.31 0.31 99 1016.8
20260502071204 60 160 2.0 5.0 0.05 0.21 0.21 99 1018.7
20260502070702 60 185 3.0 3.0 0.07 0.20 0.20 99 1018.8
20260502070200 61 186 2.0 3.0 0.12 0.20 0.20 99 1018.4
20260502065658 60 184 1.0 2.0 0.05 0.19 0.19 99 1018.2
20260502065155 60 251 3.0 3.0 0.07 0.18 0.18 99 1018.1
20260502064654 60 65 2.0 2.0 0.07 0.17 0.17 99 1017.4
20260502064151 61 146 0.0 0.0 0.12 0.17 0.17 99 1017.8
20260502063649 61 118 0.0 2.0 0.12 0.16 0.16 99 1017.7
20260502063146 61 87 2.0 2.0 0.12 0.15 0.15 99 1017.6
20260502062643 60 141 1.0 1.0 0.12 0.13 0.13 99 1018.3
20260502062141 61 174 1.0 1.0 0.12 0.12 0.12 98 1018.7
20260502061639 61 188 1.0 2.0 0.12 0.11 0.11 98 1018.8
20260502061136 61 318 2.0 6.0 0.12 0.10 0.10 98 1018.2
20260502060636 61 65 2.0 2.0 0.07 0.09 0.09 98 1017.9
20260502060133 62 334 3.0 3.0 0.05 0.08 0.08 98 1018.2
20260502055631 62 102 1.0 2.0 0.07 0.07 0.07 98 1018.2
20260502055129 62 4 2.0 2.0 0.07 0.07 0.07 98 1018.4
20260502054628 62 60 2.0 3.0 0.05 0.06 0.06 98 1018.5
20260502054125 62 129 0.0 1.0 0.05 0.06 0.06 98 1018.4
20260502053622 62 93 1.0 2.0 0.07 0.05 0.05 98 1018.3
20260502053119 62 122 1.0 1.0 0.00 0.04 0.04 98 1018.7
20260502052617 62 165 0.0 1.0 0.07 0.04 0.04 98 1018.7
20260502052115 62 144 0.0 1.0 0.07 0.04 0.04 98 1018.7
20260502051613 62 91 1.0 1.0 0.05 0.03 0.03 98 1018.6
20260502051111 62 93 1.0 3.0 0.05 0.03 0.03 98 1018.6
20260502050607 62 83 2.0 2.0 0.00 0.02 0.02 98 1018.5
20260502050104 62 102 1.0 2.0 0.00 0.02 0.02 98 1018.4
20260502045600 62 50 2.0 2.0 0.00 0.02 0.02 98 1018.7
20260502045057 62 91 1.0 2.0 0.07 0.02 0.02 98 1018.7
20260502044553 62 95 1.0 2.0 0.07 0.02 0.02 98 1018.6
20260502044050 62 23 2.0 2.0 0.00 0.01 0.01 98 1018.5
20260502043548 62 104 1.0 2.0 0.00 0.01 0.01 98 1018.4
20260502043044 62 172 1.0 2.0 0.00 0.01 0.01 98 1018.6
20260502042539 62 60 2.0 2.0 0.05 0.01 0.01 98 1018.7
20260502042037 62 340 0.0 2.0 0.05 0.01 0.01 98 1018.3
20260502041534 62 178 1.0 1.0 0.00 0.00 0.00 98 1018.2
20260502041031 63 169 1.0 1.0 0.00 0.00 0.00 98 1018.5
20260502040528 63 84 1.0 2.0 0.00 0.00 0.00 97 1018.2
20260502040025 63 109 1.0 1.0 0.07 0.03 0.03 97 1018.0
20260502035521 63 106 1.0 1.0 0.07 0.03 0.03 97 1018.0
20260502035018 63 86 1.0 2.0 0.00 0.02 0.02 97 1018.2
20260502034516 63 90 1.0 1.0 0.00 0.02 0.02 97 1018.1
20260502034015 63 90 1.0 1.0 0.00 0.02 0.02 97 1018.2
20260502033512 63 102 1.0 2.0 0.00 0.02 0.02 97 1018.1
20260502033009 63 103 0.0 1.0 0.05 0.02 0.02 97 1018.0
20260502032505 63 103 1.0 1.0 0.00 0.01 0.01 97 1018.1
20260502032002 63 103 0.0 1.0 0.00 0.01 0.01 97 1018.2
20260502031500 63 103 0.0 1.0 0.00 0.01 0.01 97 1018.3
20260502030958 63 103 0.0 0.0 0.07 0.01 0.01 97 1018.5
20260502030456 63 103 0.0 0.0 0.07 0.01 0.01 97 1018.3
20260502025954 63 103 0.0 1.0 0.00 0.00 0.00 97 1018.2
20260502025450 63 103 1.0 1.0 0.00 0.00 0.00 97 1018.1
20260502024948 63 103 0.0 1.0 0.00 0.00 0.00 97 1018.0
20260502024446 63 102 0.0 1.0 0.00 0.00 0.00 97 1018.2
20260502023944 63 102 1.0 1.0 0.00 0.00 0.00 96 1018.0
20260502023441 63 101 1.0 2.0 0.00 0.00 0.00 96 1018.3
20260502022939 63 105 1.0 2.0 0.00 0.00 0.00 96 1018.3
20260502022435 63 122 0.0 1.0 0.00 0.00 0.00 96 1018.4
20260502021932 63 123 1.0 1.0 0.00 0.00 0.00 96 1018.5
20260502021429 63 110 1.0 1.0 0.00 0.00 0.00 96 1018.4
20260502020926 63 116 0.0 1.0 0.00 0.00 0.00 96 1018.0
20260502020425 64 98 1.0 2.0 0.00 0.00 0.00 96 1018.1
20260502015920 64 116 0.0 1.0 0.00 0.00 0.00 96 1018.2
20260502015419 64 118 1.0 1.0 0.00 0.00 0.00 96 1018.2
20260502014915 64 117 1.0 1.0 0.00 0.00 0.00 96 1018.0
20260502014412 64 101 1.0 1.0 0.00 0.00 0.00 96 1018.2
20260502013908 64 111 1.0 1.0 0.00 0.00 0.00 96 1018.2
20260502013404 64 125 1.0 1.0 0.00 0.00 0.00 96 1018.2
20260502012901 64 128 0.0 1.0 0.00 0.00 0.00 96 1018.4
20260502012359 64 110 1.0 1.0 0.00 0.00 0.00 96 1018.2
20260502011856 64 107 1.0 2.0 0.00 0.00 0.00 96 1018.6
20260502011352 64 121 0.0 1.0 0.00 0.00 0.00 95 1018.7
20260502010849 64 118 0.0 1.0 0.00 0.00 0.00 95 1018.5
20260502010346 64 108 1.0 1.0 0.00 0.00 0.00 96 1018.6
20260502005842 64 111 1.0 2.0 0.00 0.00 0.00 96 1019.0
20260502005340 64 113 1.0 2.0 0.00 0.00 0.00 96 1018.8
20260502004837 64 4 2.0 3.0 0.00 0.00 0.00 96 1018.7
20260502004333 64 93 1.0 2.0 0.00 0.00 0.00 96 1018.8
20260502003831 64 352 3.0 3.0 0.00 0.00 0.00 96 1018.6
20260502003328 64 17 2.0 3.0 0.00 0.00 0.00 96 1018.5
20260502002824 64 68 2.0 3.0 0.00 0.00 0.00 96 1018.5
20260502002322 65 52 2.0 3.0 0.00 0.00 0.00 96 1017.9
20260502001819 65 89 1.0 5.0 0.00 0.00 0.00 96 1017.7
20260502001317 65 46 2.0 2.0 0.00 0.00 0.00 96 1017.8
20260502000814 65 109 1.0 2.0 0.00 0.00 0.00 96 1017.7
20260502000312 65 90 1.0 1.0 0.00 0.00 0.00 96 1017.6
20260501235808 65 78 1.0 2.0 0.00 0.00 0.00 96 1017.6
20260501235305 65 79 1.0 2.0 0.00 0.00 0.00 96 1017.6
20260501234759 65 101 1.0 2.0 0.00 0.00 0.00 96 1017.6
20260501234256 65 77 2.0 3.0 0.00 0.00 0.00 95 1017.2
20260501233755 65 112 1.0 2.0 0.00 0.00 0.00 95 1017.3
20260501233252 65 92 1.0 2.0 0.00 0.00 0.00 95 1017.6
20260501232747 65 101 1.0 1.0 0.00 0.00 0.00 95 1017.4
20260501232245 65 62 1.0 3.0 0.00 0.00 0.00 95 1017.2
20260501231742 66 134 1.0 2.0 0.00 0.00 0.00 95 1017.2
20260501231240 66 73 1.0 2.0 0.00 0.00 0.00 95 1017.2
20260501230738 66 45 2.0 3.0 0.00 0.00 0.00 95 1017.3
20260501230237 66 92 1.0 2.0 0.00 0.00 0.00 95 1017.0
20260501225734 66 49 3.0 5.0 0.00 0.00 0.00 94 1016.8
20260501225231 66 60 2.0 5.0 0.00 0.00 0.00 94 1016.9
20260501224727 66 111 2.0 3.0 0.00 0.00 0.00 94 1016.9
20260501224225 66 38 3.0 3.0 0.00 0.00 0.00 93 1017.1
20260501223721 66 39 3.0 3.0 0.00 0.00 0.00 93 1017.2
20260501223218 67 76 3.0 5.0 0.00 0.00 0.00 92 1017.1
20260501222714 67 54 1.0 6.0 0.00 0.00 0.00 92 1017.2
20260501222211 67 24 3.0 6.0 0.00 0.00 0.00 91 1017.1
20260501221707 67 30 3.0 3.0 0.00 0.00 0.00 90 1017.1
20260501221205 68 70 3.0 3.0 0.00 0.00 0.00 89 1017.1
20260501220702 68 36 4.0 5.0 0.00 0.00 0.00 88 1017.2
20260501220159 69 39 3.0 5.0 0.00 0.00 0.00 88 1017.5
20260501215656 69 120 0.0 1.0 0.00 0.00 0.00 87 1017.3
20260501215151 69 133 2.0 3.0 0.00 0.00 0.00 86 1017.1
20260501214647 70 120 1.0 2.0 0.00 0.00 0.00 84 1017.5
20260501214142 71 96 3.0 5.0 0.00 0.00 0.00 83 1017.5
20260501213634 72 102 3.0 5.0 0.00 0.00 0.00 80 1017.5
20260501213130 72 56 2.0 3.0 0.00 0.00 0.00 74 1017.3
20260501212627 72 171 0.0 3.0 0.00 0.00 0.00 72 1017.3
20260501212123 73 179 2.0 5.0 0.00 0.00 0.00 71 1017.4
20260501211620 72 297 3.0 5.0 0.00 0.00 0.00 72 1017.2
20260501211118 73 199 2.0 2.0 0.00 0.00 0.00 81 1017.0
20260501210615 72 164 3.0 3.0 0.00 0.00 0.00 82 1016.8
20260501210111 73 151 5.0 6.0 0.00 0.00 0.00 81 1017.1
20260501205608 73 91 3.0 3.0 0.00 0.00 0.00 81 1016.8
20260501205105 73 75 3.0 6.0 0.00 0.00 0.00 82 1016.7
20260501204602 73 107 5.0 8.0 0.00 0.00 0.00 81 1016.7